Location: D�pe
(52.6057°N, 8.1808°E)
Time: 01:54:10
(UTC+00:00)

CZ-4C R/B - Pass Details

Date: 29 October 2020
Orbit: 624 x 1378 km, 63.4° (Epoch: 23 November)

Event Time Altitude Azimuth Distance (km) Brightness Sun altitude
Rises 16:49:52 0° 298° (WNW) 3,477 6.2 -7.7°
Reaches altitude 10° 16:52:26 10° 308° (NW) 2,649 5.4 -8.1°
Maximum altitude 16:58:11 35° 14° (NNE) 1,641 3.5 -9.0°
Enters shadow 17:04:26 12° 76° (ENE) 2,981 4.3 -9.9°
